[[{"header":{"parameterUnit":"m.s-1","parameterCategory":1,"la1":30.2991,"la2":30.254,"lo1":-89.0895,"lo2":-89.0444,"dy":0.0017,"dx":0.0017,"nx":28,"ny":28,"refTime":"2023-04-26T21:00:00:Z","depth":0,"parameterNumber":2,"parameterNumberName":"U-component_of_WINDS"},"data":[0,0,0,0,0,0,0,0,0,0,0,0,0,0,0,0,0,0,0,0,0,0,0,0,0,0,0,0,0,0,0,0,0,0,0,0,0,0,0,0,0,0,0,0,0,0,0,0,0,0,0,0,0,0,0,0,0,0,2.1684,2.1684,0,2.1689,2.1689,2.169,2.1577,2.1574,2.157,2.1568,2.1576,2.1579,2.1582,0,0,0,0,0,0,0,0,0,0,0,0,0,2.1576,2.1579,2.1684,2.1684,2.1684,2.1689,2.169,2.169,2.1577,2.1573,2.157,2.1566,2.1575,2.1579,2.1582,0,0,0,0,0,0,0,0,0,0,0,0,0,2.1607,2.1579,2.1684,2.1628,2.1623,2.1689,2.169,2.169,2.1578,2.1573,2.1569,2.1564,2.1574,2.1578,2.1583,2.1703,0,0,2.1597,2.1599,0,0,0,0,0,0,0,0,2.1605,2.1611,2.1636,2.1632,2.1627,2.1627,2.1654,2.1694,2.1579,2.1595,2.1568,2.1562,2.1597,2.1599,2.1611,2.1703,2.1703,2.1597,2.16,2.1602,2.1603,0,0,0,0,0,0,0,2.1603,2.161,2.1686,2.1637,2.1631,2.1603,2.1603,2.1662,2.1622,2.1593,2.1585,2.1587,2.1593,2.1606,2.161,2.1704,2.1597,2.1601,2.1604,2.1606,2.1894,2.1898,0,0,0,0,0,0,2.1608,2.1609,2.1686,2.1686,2.1604,2.1609,2.1608,2.1632,2.1621,2.1615,2.1591,2.1582,2.1601,2.1605,2.161,2.1748,2.1602,2.1606,2.1609,2.1889,2.1895,2.19,0,0,0,0,0,0,2.1606,2.1616,2.1685,2.1645,2.1652,2.1616,2.1643,2.1634,2.1647,2.1619,2.1612,2.1612,2.1597,2.1603,2.168,2.1747,2.1608,2.1612,2.1883,2.1891,2.1897,2.2028,0,0,0,0,0,0,2.1604,2.1616,2.1661,2.1647,2.1654,2.1756,2.1647,2.1638,2.1655,2.1643,2.1636,2.1631,2.1594,2.1674,2.1685,2.1751,2.1616,2.1877,2.1886,2.1895,2.2017,2.2039,2.2057,0,0,0,0,0,2.16,2.1698,2.1664,2.1674,2.171,2.176,2.1764,2.1719,2.1661,2.1706,2.1688,2.1631,2.1738,2.1683,2.1694,2.1763,2.1872,2.1884,2.1894,2.2008,2.2034,2.2056,0,0,0,0,0,0,2.1722,2.1696,2.1657,2.1753,2.176,2.174,2.1796,2.1748,2.1772,2.176,2.1704,2.1703,2.1789,2.1783,2.1722,2.1878,2.1795,2.1809,2.1878,2.1902,2.1922,2.1921,2.162,0,0,0,0,0,2.176,2.1802,2.1777,2.1865,2.1869,2.1833,2.1853,2.1817,2.1822,2.1824,2.1811,2.1819,2.1853,2.1878,2.1909,2.2016,2.2013,2.2069,2.2089,2.2105,2.2118,2.2173,2.2198,2.1936,2.1936,2.1936,0,0,2.184,2.183,2.186,2.1889,2.1889,2.1934,2.1835,2.1888,2.192,2.1832,2.1903,2.1895,2.1899,2.1991,2.2031,2.1989,2.2189,2.2119,2.2133,2.2136,2.2187,2.2212,2.2234,2.1944,2.1942,2.1941,0,0,2.2006,2.2004,2.2076,2.2078,2.208,2.2055,2.2072,2.206,2.205,2.2121,2.2055,2.2094,2.2156,2.2161,2.2172,2.234,2.2288,2.2352,2.2455,2.251,2.2531,2.2548,2.2608,2.263,2.2365,2.2365,2.2365,0,2.2105,2.2169,2.2119,2.2175,2.2189,2.2111,2.2183,2.2188,2.2201,2.2212,2.2165,2.224,2.2237,2.2329,2.237,2.2382,2.24,2.2352,2.2532,2.2549,2.2565,2.2621,2.2643,2.2373,2.2372,2.2371,2.237,0,2.2289,2.2335,2.2393,2.2406,2.2427,2.2491,2.2451,2.2478,2.2441,2.2421,2.2494,2.2488,2.2515,2.2535,2.25,2.2622,2.2595,2.2541,2.2457,2.2598,2.265,2.2671,2.2383,2.2381,2.2378,2.2377,0,0,2.2533,2.2516,2.2539,2.2543,2.2539,2.2574,2.2634,2.266,2.2685,2.2696,2.2745,2.2799,2.2748,2.276,2.2725,2.2774,2.2906,2.2713,2.2712,2.2748,2.3039,2.3079,2.3105,2.2872,2.2876,2.2879,2.3038,0,2.2694,2.2796,2.2752,2.2858,2.2899,2.2825,2.2878,2.2881,2.2864,2.2897,2.2878,2.2917,2.2848,2.2854,2.2899,2.2881,2.2964,2.2869,2.2917,2.2919,2.2917,2.3132,2.3175,2.3325,2.3058,2.3062,2.3064,0,2.2895,2.2914,2.3024,2.3011,2.3027,2.3075,2.3095,2.3128,2.313,2.3114,2.3128,2.3082,2.3141,2.3058,2.3137,2.3074,2.3091,2.3085,2.309,2.3092,2.3,2.3139,2.3372,2.3394,2.3095,2.3093,2.3091,0,2.3061,2.3113,2.3185,2.3191,2.3179,2.3215,2.3211,2.3209,2.3227,2.3245,2.3256,2.3282,2.3295,2.3316,2.3278,2.3221,2.3363,2.3277,2.3351,2.3352,2.3383,2.3381,2.3622,2.3397,2.3396,2.3396,2.3396,0,2.3244,2.3314,2.3259,2.3303,2.3379,2.3329,2.3406,2.3394,2.3393,2.3434,2.3372,2.3412,2.336,2.3395,2.3366,2.3436,2.3443,2.3431,2.3422,2.3436,2.3437,2.3446,2.3434,2.3402,2.3401,2.3399,2.3398,0,2.3441,2.3407,2.348,2.3463,2.346,2.3517,2.3501,2.3542,2.352,2.3573,2.3582,2.3549,2.3587,2.3551,2.3587,2.3567,2.3661,2.3637,2.3659,2.3652,2.3728,2.3721,2.3981,2.4012,2.3769,2.3771,2.3773,0,2.356,2.3612,2.3599,2.3622,2.3622,2.3659,2.3677,2.363,2.3651,2.3658,2.3697,2.373,2.3753,2.3817,2.3796,2.3823,2.3799,2.3889,2.3803,2.3815,2.3799,2.3796,2.38,2.3906,2.3909,2.3911,2.3913,0,2.3774,2.3754,2.3782,2.3805,2.3827,2.3843,2.3853,2.3876,2.3827,2.3854,2.3891,2.3909,2.3946,2.3978,2.3999,2.3996,2.3947,2.394,2.3958,2.3972,2.3982,2.3976,2.3705,2.3934,2.3932,2.393,2.3929,2.3928,2.3934,2.3976,2.3974,2.4007,2.401,2.4021,2.4057,2.404,2.407,2.4095,2.4066,2.4112,2.4112,2.4135,2.4137,2.4172,2.4135,2.4162,2.4168,2.4175,2.4186,2.3978,2.4176,2.4176,2.4175,2.4175,2.4174,0,2.4144,2.4138,2.4169,2.4185,2.4212,2.4162,2.4171,2.4197,2.4237,2.4242,2.4265,2.4308,2.434,2.4321,2.4348,2.438,2.4358,2.4388,2.4385,2.4384,2.4219,2.4199,2.4405,2.4405,2.4405,2.4405,2.4405,2.4405,2.4256,2.4324,2.4304,2.4373,2.4367,2.4411,2.442,2.443,2.4433,2.4483,2.4508,2.4496,2.4491,2.4517,2.4544,2.4537,2.455,2.4588,2.4574,2.4419,2.4396,2.4375,2.4356,2.4592,2.4592,2.4736,2.4738,2.4739]},{"header":{"parameterUnit":"m.s-1","parameterCategory":1,"la1":30.2991,"la2":30.254,"lo1":-89.0895,"lo2":-89.0444,"dy":0.0017,"dx":0.0017,"nx":28,"ny":28,"refTime":"2023-04-26T21:00:00:Z","depth":0,"parameterNumber":3,"parameterNumberName":"V-component_of_WINDS"},"data":[0,0,0,0,0,0,0,0,0,0,0,0,0,0,0,0,0,0,0,0,0,0,0,0,0,0,0,0,0,0,0,0,0,0,0,0,0,0,0,0,0,0,0,0,0,0,0,0,0,0,0,0,0,0,0,0,0,0,1.4221,1.4222,0,1.4314,1.4315,1.4316,1.4333,1.4332,1.4332,1.4331,1.4424,1.4427,1.443,0,0,0,0,0,0,0,0,0,0,0,0,0,1.4053,1.4056,1.4221,1.4223,1.4224,1.4314,1.4315,1.4317,1.4333,1.4332,1.4331,1.4331,1.4423,1.4426,1.443,0,0,0,0,0,0,0,0,0,0,0,0,0,1.4134,1.4057,1.4221,1.4243,1.4246,1.4314,1.4316,1.4317,1.4333,1.4332,1.4331,1.433,1.4421,1.4426,1.4431,1.4483,0,0,1.4445,1.4447,0,0,0,0,0,0,0,0,1.4129,1.414,1.4239,1.4242,1.4245,1.4311,1.429,1.4373,1.4334,1.43,1.4331,1.433,1.4387,1.4394,1.4414,1.4487,1.4491,1.4446,1.4449,1.4451,1.4452,0,0,0,0,0,0,0,1.4124,1.4136,1.4258,1.424,1.4244,1.4246,1.4257,1.4306,1.4349,1.4303,1.4304,1.4315,1.4388,1.441,1.4417,1.4493,1.4446,1.445,1.4453,1.4455,1.4609,1.461,0,0,0,0,0,0,1.4115,1.4132,1.4255,1.4261,1.4183,1.425,1.4262,1.4291,1.4348,1.4356,1.4316,1.4316,1.4402,1.4411,1.442,1.4482,1.4451,1.4455,1.4458,1.4607,1.4609,1.461,0,0,0,0,0,0,1.4111,1.4126,1.4251,1.4197,1.4213,1.4254,1.4287,1.4293,1.4315,1.4358,1.4366,1.433,1.4402,1.4413,1.4466,1.4486,1.4457,1.4462,1.4606,1.4608,1.461,1.4609,0,0,0,0,0,0,1.4106,1.4124,1.4146,1.4197,1.4216,1.4298,1.4288,1.4296,1.4323,1.4323,1.4374,1.4381,1.4402,1.4459,1.4471,1.4492,1.4465,1.4604,1.4607,1.4609,1.4608,1.4611,1.4613,0,0,0,0,0,1.41,1.4143,1.4147,1.4162,1.4244,1.4299,1.431,1.4334,1.4325,1.4346,1.4373,1.4379,1.4482,1.4465,1.4478,1.4501,1.4603,1.4606,1.4609,1.4606,1.461,1.4613,0,0,0,0,0,0,1.4093,1.415,1.4156,1.4216,1.4253,1.4302,1.433,1.4337,1.4377,1.4375,1.4402,1.4413,1.4464,1.4488,1.4468,1.4552,1.4542,1.4547,1.4535,1.4539,1.4542,1.4535,1.4469,0,0,0,0,0,1.4099,1.414,1.4187,1.4236,1.4254,1.4288,1.4313,1.4328,1.4367,1.4382,1.4414,1.445,1.449,1.4516,1.4555,1.4611,1.462,1.4633,1.4635,1.4638,1.4642,1.4669,1.4675,1.4619,1.4619,1.4619,0,0,1.4111,1.4147,1.4171,1.4235,1.4265,1.4305,1.4301,1.4345,1.4374,1.4389,1.444,1.4464,1.4506,1.456,1.4585,1.4581,1.4659,1.4641,1.4643,1.4646,1.4673,1.4678,1.4683,1.4621,1.4621,1.4621,0,0,1.4153,1.4185,1.4228,1.4257,1.4303,1.4325,1.4335,1.4382,1.4398,1.4451,1.4461,1.4495,1.4565,1.4593,1.4617,1.4665,1.4671,1.4677,1.4692,1.4718,1.4723,1.4727,1.4742,1.4747,1.4681,1.4681,1.4681,0,1.4162,1.4224,1.4249,1.4291,1.4317,1.4331,1.4373,1.44,1.4456,1.4473,1.4467,1.4552,1.4582,1.464,1.4652,1.4671,1.4681,1.4672,1.472,1.4725,1.4729,1.4743,1.4749,1.4681,1.4681,1.4681,1.4681,0,1.4231,1.4274,1.4302,1.4355,1.4385,1.4426,1.4455,1.4482,1.4493,1.4514,1.4565,1.4601,1.4646,1.4661,1.4673,1.472,1.4716,1.4715,1.4705,1.4734,1.4748,1.4753,1.4682,1.4682,1.4682,1.4682,0,0,1.4274,1.4337,1.4347,1.4369,1.4419,1.4451,1.4492,1.4536,1.4557,1.4594,1.4627,1.4683,1.4682,1.4708,1.4723,1.4746,1.4778,1.4742,1.4743,1.4746,1.4829,1.4829,1.4835,1.4782,1.4784,1.4785,1.4825,0,1.432,1.4394,1.4416,1.4478,1.4515,1.4527,1.4562,1.4595,1.4615,1.4649,1.4671,1.471,1.4706,1.4722,1.4745,1.477,1.4795,1.4767,1.4811,1.4813,1.48,1.4843,1.4843,1.488,1.4831,1.4832,1.4833,0,1.4385,1.4422,1.4487,1.4528,1.4545,1.4576,1.4616,1.4649,1.4685,1.4698,1.4726,1.4737,1.4777,1.4765,1.4819,1.4799,1.4818,1.4832,1.4834,1.4839,1.4824,1.4847,1.4893,1.4898,1.4842,1.4841,1.484,0,1.4406,1.4473,1.452,1.4539,1.4588,1.4609,1.4631,1.4665,1.4689,1.4724,1.4739,1.4778,1.4799,1.4828,1.4848,1.4838,1.4899,1.4889,1.4909,1.4909,1.4922,1.4921,1.497,1.4936,1.4936,1.4936,1.4935,0,1.4455,1.4494,1.4529,1.4558,1.4601,1.4624,1.4665,1.4687,1.4717,1.4748,1.4761,1.4789,1.4816,1.4847,1.4863,1.4904,1.4914,1.4923,1.4927,1.4922,1.492,1.4935,1.4932,1.4937,1.4937,1.4936,1.4936,0,1.4487,1.4513,1.4564,1.4606,1.4617,1.4646,1.4681,1.4708,1.4728,1.4767,1.4777,1.4808,1.4845,1.4869,1.4917,1.4927,1.4971,1.4975,1.4959,1.4961,1.4979,1.4976,1.5038,1.5046,1.5008,1.5008,1.5008,0,1.4516,1.4546,1.4591,1.4613,1.4634,1.467,1.4694,1.4716,1.474,1.4781,1.4802,1.484,1.4872,1.4931,1.4956,1.4992,1.4995,1.5014,1.5001,1.4993,1.4993,1.4991,1.4993,1.5016,1.5017,1.5017,1.5017,0,1.4565,1.4575,1.461,1.4648,1.4676,1.4707,1.4738,1.4755,1.4782,1.4808,1.4846,1.487,1.4918,1.4955,1.4992,1.5012,1.5018,1.5021,1.5027,1.5022,1.5011,1.5015,1.4964,1.502,1.5019,1.5019,1.5019,1.5019,1.4595,1.4621,1.4655,1.4693,1.4718,1.4745,1.4772,1.4794,1.4827,1.4867,1.4878,1.4917,1.4948,1.4999,1.5019,1.5049,1.5046,1.5055,1.5058,1.5059,1.5059,1.5007,1.5056,1.5056,1.5056,1.5056,1.5056,0,1.4642,1.4664,1.4698,1.474,1.4769,1.4772,1.4806,1.4829,1.4863,1.4892,1.4923,1.4965,1.4999,1.5026,1.5061,1.5079,1.5083,1.5088,1.5086,1.509,1.506,1.5051,1.5084,1.5084,1.5084,1.5084,1.5084,1.5084,1.467,1.4714,1.4727,1.4782,1.4803,1.4842,1.486,1.4885,1.4908,1.4954,1.4983,1.5,1.5028,1.5064,1.5095,1.5102,1.5113,1.5117,1.5124,1.5096,1.5093,1.509,1.5081,1.512,1.512,1.5152,1.5152,1.5152]}]]